Welcome to the New NWS' Forecast!
Most changes are behind the scenes, but click here for differences you might notice.

Regional Weather Roundup (RWR)

Issued by Gray - Portland, ME (GYX)

                            
000
ASUS41 KGYX 181210
RWRGYX
WEATHER ROUNDUP FOR MAINE AND NEW HAMPSHIRE
NATIONAL WEATHER SERVICE GRAY ME
800 AM EDT THU OCT 18 2018

MEZ002-005-006-010-012-015-018-020-021-024-026-027-029-181300-
MAINE
  
CITY           SKY/WX    TMP DP  RH WIND       PRES   REMARKS
PORTLAND       FAIR      34  29  82 W9        30.07R                  
6HR MIN TEMP:  33; 6HR MAX TEMP:  39; 6HR PCP: TRACE;                

SANFORD        FAIR      36  21  54 NW12G22   30.09R                  
BAR HARBOR     FAIR      35  21  56 NW14G21   29.93R                  
WISCASSET      FAIR      35  26  69 W8        30.05R                  
6HR MIN TEMP:  33; 6HR MAX TEMP:  40;                                

ROCKLAND       FAIR      35  25  66 W10       29.99R                  
FRYEBURG       CLOUDY    35  20  54 W9G16     30.08R                  
6HR MIN TEMP:  30; 6HR MAX TEMP:  38; 6HR PCP: TRACE;                

AUGUSTA        FAIR      34  22  61 NW10G17   30.01R                  
6HR MIN TEMP:  33; 6HR MAX TEMP:  38;                                

WATERVILLE     FAIR      34  22  61 NW9       29.98R                  
BANGOR         FAIR      34  21  59 NW10      29.94R                  
6HR MIN TEMP:  33; 6HR MAX TEMP:  37;                                

GREENVILLE       N/A     28  18  66 NW23G37   29.85R WCI  14          
6HR MIN TEMP:  28; 6HR MAX TEMP:  32;                                

MILLINOCKET    MOCLDY    33  20  58 W14G28    29.88R                  
6HR MIN TEMP:  33; 6HR MAX TEMP:  37; 6HR PCP: TRACE;                

HOULTON        FAIR      32  24  72 W21G32    29.78R WCI  20          
6HR MIN TEMP:  30; 6HR MAX TEMP:  34;                                

PRESQUE ISLE   FAIR      32  24  72 W17G26    29.77R                  
6HR MIN TEMP:  30; 6HR MAX TEMP:  32;                                

FRENCHVILLE    FLURRIES  31  24  75 NW21G28   29.72R WCI  18          
6HR MIN TEMP:  30; 6HR MAX TEMP:  32; 6HR PCP: TRACE;                

CARIBOU        MOCLDY    32  23  69 W13G25    29.74R                  
6HR MIN TEMP:  31; 6HR MAX TEMP:  33;                                

$$

NHZ002-005-008-009-011-012-014-181300-
NEW HAMPSHIRE
  
CITY           SKY/WX    TMP DP  RH WIND       PRES   REMARKS
PORTSMOUTH     PTCLDY    36  22  57 W14G21    30.10R                  
ROCHESTER      FAIR      34  24  67 NW14G29   30.09R                  
6HR MIN TEMP:  33; 6HR MAX TEMP:  37;                                

NASHUA         FAIR      36  20  52 NW13      30.16R                  
MANCHESTER     FAIR      37  20  50 NW14G23   30.14R                  
6HR MIN TEMP:  35; 6HR MAX TEMP:  39; 6HR PCP: TRACE;                

CONCORD        MOCLDY    34  21  59 W14G24    30.14R                  
6HR MIN TEMP:  33; 6HR MAX TEMP:  36;                                

LACONIA        FLURRIES  33  21  61 W8        30.12R                  
PLYMOUTH       CLOUDY    32  24  72 NW7G16    30.12R                  
BERLIN         FLURRIES  30  20  66 NW10G18   30.05R                  
6HR MIN TEMP:  29; 6HR MAX TEMP:  33; 6HR PCP:  0.10;                

WHITEFIELD     CLOUDY    31  21  66 W10G21    30.09R                  
6HR MIN TEMP:  30; 6HR MAX TEMP:  33; 6HR PCP: TRACE;                

JAFFREY        FAIR      32  18  56 NW10G24   30.14R                  
6HR MIN TEMP:  32; 6HR MAX TEMP:  35;                                

KEENE          FAIR      33  18  53 VRB6      30.19R                  
LEBANON        CLOUDY    33  18  53 NW7       30.17R                  
6HR MIN TEMP:  33; 6HR MAX TEMP:  35; 6HR PCP:  0.01;                

MT WASHINGTON  SNOW       7   7 100 NW63G89     N/A  VSB 1/16WCI -24  
6HR MIN TEMP:   7; 6HR MAX TEMP:  11; 6HR PCP:  0.49;                

$$

VTZ005-007-008-181300-
VERMONT
  
CITY           SKY/WX    TMP DP  RH WIND       PRES   REMARKS
ST JOHNSBURY     N/A     31  22  69 MISG      30.12R                  
MONTPELIER     FLURRIES  29  22  75 NW12G22   30.19R WCI  19          
BURLINGTON     MOCLDY    34  19  54 NW15G28   30.24R                  
$$

MAZ007-012-024-CTZ003-RIZ002-NYZ038-NYZ072-181300-
SOUTHERN NEW ENGLAND AND NY
  
CITY           SKY/WX    TMP DP  RH WIND       PRES   REMARKS
BOSTON         FAIR      39  19  44 NW15G23   30.17R                  
WORCESTER      FAIR      32  17  54 W17G29    30.15R                  
NANTUCKET      FAIR      41  20  43 NW24G37   30.14R                  
PROVIDENCE     FAIR      38  20  48 NW13      30.20R                  
HARTFORD       FAIR      36  19  50 W12       30.25R                  
ALBANY         FAIR      34  20  56 NW9       30.30R                  
NEW YORK CITY  FAIR      44  27  51 NW16G23   30.30R                  
$$

ANZ081-ANZ082-ANZ150-NHZ014-MEZ023>029-181300-
COASTAL MARINE OBSERVATIONS
  
STATION/POSITION TIME  TEMP    WIND        PRES    WAVE
                       AIR SEA DIR/SP/G            HT/PER
                 (UTC) (F)     (DEG/KT/KT) (MB)    (FT/S)
MOUNT DESERT ROC 1200   39     290/ 38/ 45 1012.9R
MATINICUS ROCK   1100   39     290/ 36/ 40 1013.1R
ISLE OF SHOALS   1100   37     290/ 24/ 29 1017.6R
JEFFREYS LEDGE   1106      55                N/A     7/ 6
$$

.............KEY..............
   WCI - WIND CHILL
   TC  - TEMPERATURE IN CELSIUS
   VSB - VISIBILITY IN MILES
   HX  - HEAT INDEX
   FAIR- INDICATES FEW OR NO CLOUDS BELOW 12,000 FT, WITH NO 
         SIGNIFICANT WEATHER AND/OR OBSTRUCTIONS TO VISIBILITY.